Location: Albany
(35.0170°S, 117.8920°E)
Time: 02:02:59
(UTC+08:00)

Vanguard 1 - Pass Details

Date: 29 January 2021
Orbit: 649 x 3833 km, 34.2° (Epoch: 25 February)

Event Time Altitude Azimuth Distance (km) Brightness Sun altitude
Rises 01:00:11 0° 287° (WNW) 4,566 - -36.2°
Reaches altitude 10° 01:03:51 10° 288° (WNW) 3,153 - -36.0°
Maximum altitude 01:10:51 71° 10° (N) 879 - -35.7°
Drops below altitude 10° 01:15:31 10° 94° (E) 2,138 - -35.5°
Exits shadow 01:16:48 - 96° (E) 2,663 12.5 -35.4°
Sets 01:17:35 0° 96° (E) 2,988 12.8 -35.3°
